This is the latest recevied weather packets stored in our database for station/object K5OLV. If no packets are shown the sender has not sent any weather packets the latest 1 day(s).
| Time | Temp. | Humidity | Pressure | Rain* | Wind** | Luminosity | Snow |
|---|---|---|---|---|---|---|---|
| 1778030991 | 19.44° C | 66% | 1009.4 hPa | 0 mm | 0.89 m/s, 122° | 0 W/m² | - |
| 1778030688 | 19.44° C | 67% | 1009.5 hPa | 0 mm | 0.45 m/s, 31° | 0 W/m² | - |
| 1778030385 | 19.44° C | 66% | 1009.3 hPa | 0 mm | 0.45 m/s, 180° | 0 W/m² | - |
| 1778030082 | 19.44° C | 67% | 1009.3 hPa | 0 mm | 0.89 m/s, 161° | 0 W/m² | - |
| 1778029779 | 19.44° C | 67% | 1009.4 hPa | 0 mm | 1.79 m/s, 163° | 0 W/m² | - |
| 1778029478 | 19.44° C | 66% | 1009.4 hPa | 0 mm | 1.79 m/s, 165° | 0 W/m² | - |
| 1778029173 | 19.44° C | 67% | 1009.2 hPa | 0 mm | 1.34 m/s, 166° | 0 W/m² | - |
| 1778028872 | 19.44° C | 67% | 1009.3 hPa | 0 mm | 1.34 m/s, 141° | 0 W/m² | - |
| 1778028566 | 19.44° C | 67% | 1009.1 hPa | 0 mm | 1.79 m/s, 221° | 0 W/m² | - |
| 1778028265 | 19.44° C | 67% | 1009.4 hPa | 0 mm | 1.34 m/s, 141° | 0 W/m² | - |
| 1778027960 | 19.44° C | 66% | 1009.2 hPa | 0 mm | 0.89 m/s, 175° | 0 W/m² | - |
| 1778027657 | 19.44° C | 65% | 1009.1 hPa | 0 mm | 1.34 m/s, 163° | 0 W/m² | - |
| 1778027354 | 19.44° C | 65% | 1009.3 hPa | 0 mm | 0.89 m/s, 210° | 0 W/m² | - |
| 1778027050 | 20° C | 64% | 1009.4 hPa | 0 mm | 1.34 m/s, 156° | 1 W/m² | - |
| 1778026745 | 20° C | 64% | 1009.4 hPa | 0 mm | 0.89 m/s, 52° | 1 W/m² | - |
| 1778026443 | 20° C | 63% | 1009.4 hPa | 0 mm | 1.34 m/s, 161° | 4 W/m² | - |
| 1778026140 | 20° C | 62% | 1009.4 hPa | 0 mm | 1.34 m/s, 200° | 6 W/m² | - |
| 1778025838 | 20° C | 62% | 1009.4 hPa | 0 mm | 0.89 m/s, 216° | 10 W/m² | - |
| 1778025534 | 20° C | 61% | 1009.5 hPa | 0 mm | 1.34 m/s, 248° | 13 W/m² | - |
| 1778025232 | 20° C | 61% | 1009.6 hPa | 0 mm | 0.45 m/s, 171° | 11 W/m² | - |
| 1778024928 | 20° C | 60% | 1009.4 hPa | 0 mm | 1.34 m/s, 74° | 8 W/m² | - |
| 1778024626 | 20° C | 60% | 1009.5 hPa | 0 mm | 0.45 m/s, 290° | 16 W/m² | - |
| 1778024323 | 20° C | 60% | 1009.4 hPa | 0 mm | 0.89 m/s, 158° | 18 W/m² | - |
| 1778024021 | 20° C | 59% | 1009.4 hPa | 0 mm | 0.89 m/s, 226° | 27 W/m² | - |
| 1778023718 | 20° C | 59% | 1009.5 hPa | 0 mm | 0.89 m/s, 112° | 39 W/m² | - |
* Rain latest hour (hover to see other rain measurements)
** Current wind speed in m/s (hover to see current wind gust speed)